TimeMST,TemperatureF,Dew PointF,Humidity,Sea Level PressureIn,VisibilityMPH,Wind Direction,Wind SpeedMPH,Gust SpeedMPH,PrecipitationIn,Events,Conditions,WindDirDegrees,DateUTC
12:55 AM,71.1,27.0,19,29.90,10.0,SE,4.6,-,N/A,,Clear,140,2013-04-21 07:55:00
1:55 AM,70.0,26.1,19,29.89,10.0,Calm,Calm,-,N/A,,Clear,0,2013-04-21 08:55:00
2:55 AM,68.0,25.0,20,29.88,10.0,ENE,3.5,-,N/A,,Clear,70,2013-04-21 09:55:00
3:55 AM,64.0,32.0,30,29.88,10.0,Calm,Calm,-,N/A,,Clear,0,2013-04-21 10:55:00
4:55 AM,64.9,30.0,27,29.88,10.0,NNE,4.6,-,N/A,,Clear,30,2013-04-21 11:55:00
5:55 AM,64.0,30.9,29,29.90,10.0,NE,3.5,-,N/A,,Clear,40,2013-04-21 12:55:00
6:55 AM,66.0,30.9,27,29.92,10.0,NE,5.8,-,N/A,,Partly Cloudy,40,2013-04-21 13:55:00
7:55 AM,71.1,28.9,21,29.94,10.0,NNE,5.8,-,N/A,,Clear,30,2013-04-21 14:55:00
8:55 AM,78.1,27.0,15,29.95,10.0,Calm,Calm,-,N/A,,Clear,0,2013-04-21 15:55:00
9:55 AM,82.0,32.0,16,29.96,10.0,West,4.6,-,N/A,,Clear,260,2013-04-21 16:55:00
10:55 AM,84.9,23.0,10,29.97,10.0,SW,5.8,-,N/A,,Partly Cloudy,230,2013-04-21 17:55:00
11:55 AM,88.0,19.9,8,29.95,10.0,SSW,6.9,-,N/A,,Partly Cloudy,200,2013-04-21 18:55:00
12:55 PM,90.0,23.0,9,29.93,10.0,SSW,8.1,-,N/A,,Partly Cloudy,210,2013-04-21 19:55:00
1:55 PM,93.0,19.0,7,29.90,10.0,Variable,5.8,16.1,N/A,,Partly Cloudy,0,2013-04-21 20:55:00
2:55 PM,95.0,19.0,6,29.87,10.0,South,15.0,19.6,N/A,,Partly Cloudy,190,2013-04-21 21:55:00
3:55 PM,95.0,10.9,4,29.85,10.0,South,11.5,-,N/A,,Partly Cloudy,170,2013-04-21 22:55:00
4:55 PM,93.9,10.9,5,29.84,10.0,SSW,11.5,-,N/A,,Scattered Clouds,200,2013-04-21 23:55:00
5:55 PM,91.9,18.0,7,29.83,10.0,SSW,10.4,-,N/A,,Scattered Clouds,200,2013-04-22 00:55:00
6:55 PM,88.0,24.1,10,29.83,10.0,SSW,8.1,-,N/A,,Partly Cloudy,200,2013-04-22 01:55:00
7:55 PM,82.0,21.0,10,29.84,10.0,SSW,6.9,-,N/A,,Partly Cloudy,210,2013-04-22 02:55:00
8:55 PM,78.1,21.0,12,29.86,10.0,SSW,5.8,-,N/A,,Partly Cloudy,200,2013-04-22 03:55:00
9:55 PM,75.9,21.0,13,29.88,10.0,SW,4.6,-,N/A,,Clear,220,2013-04-22 04:55:00
10:55 PM,73.0,23.0,15,29.88,10.0,South,4.6,-,N/A,,Clear,190,2013-04-22 05:55:00
11:55 PM,71.1,21.0,15,29.88,10.0,Calm,Calm,-,N/A,,Clear,0,2013-04-22 06:55:00